Weather History for Kenosha, WI

Change the Weather History Date:

Friday, December 7, 2012

  Actual Average Record
Temperature  
Mean Temperature 40 °F -  
Max Temperature 42 °F 35 °F 57 °F (1963)
Min Temperature 37 °F 22 °F -5 °F (1972)
Degree Days  
Heating Degree Days 26    
Moisture  
Dew Point 33 °F    
Average Humidity 76    
Maximum Humidity 86    
Minimum Humidity 65    
Precipitation  
Precipitation 0.00 in - - ()
Sea Level Pressure  
Sea Level Pressure 29.94 in    
Wind  
Wind Speed 6 mph (North)    
Max Wind Speed 10 mph    
Max Gust Speed -    
Visibility 10 miles    
Events Rain    
Averages and records for this station are not official NWS values.
T = Trace of Precipitation, MM = Missing Value Source: NWS Daily Summary

Daily Weather History Graph

Daily Weather History Graph

Search for Another Location

Airport:

Trip Planner

Search our weather history database for the weather conditions in past years. The results will help you decide how hot, cold, wet, or windy it might be!

Date:

Astronomy

Dec. 07, 2012 Rise Set
Actual Time 7:08 AM CST 4:18 PM CST
Civil Twilight 6:36 AM CST 4:50 PM CST
Nautical Twilight 6:01 AM CST 5:25 PM CST
Astronomical Twilight 5:27 AM CST 5:59 PM CST
Moon 12:20 AM CST (12/7) 12:21 PM CST (12/7)
Length of Visible Light 10h 13m
Length of Day
9h 09m
Last Quarter, 38% of the Moon is Illuminated
Dec 7
Last Quarter
Dec 13
New
Dec 19
First Quarter
Dec 28
Full
Jan 4
Last Quarter

Hourly Weather History & Observations

Time (CST) Temp. Windchill Dew Point Humidity Pressure Visibility Wind Dir Wind Speed Gust Speed Precip Events Conditions
12:53 AM 42.1 °F 38.4 °F 37.0 °F 82% 29.93 in 7.0 mi West 5.8 mph - N/A   Overcast
1:53 AM 42.1 °F 39.2 °F 37.9 °F 85% 29.93 in 5.0 mi West 4.6 mph - 0.00 in Rain Light Rain
2:53 AM 41.0 °F 39.0 °F 37.0 °F 86% 29.93 in 7.0 mi WNW 3.5 mph - 0.00 in   Overcast
3:53 AM 41.0 °F 35.8 °F 33.1 °F 73% 29.93 in 10.0 mi NNW 8.1 mph - N/A   Overcast
4:53 AM 39.0 °F 34.8 °F 30.9 °F 73% 29.94 in 10.0 mi North 5.8 mph - N/A   Overcast
5:53 AM 37.9 °F - 32.0 °F 79% 29.95 in 10.0 mi Calm Calm - N/A   Overcast
6:53 AM 37.9 °F - 30.0 °F 73% 29.97 in 10.0 mi Calm Calm - N/A   Overcast
7:53 AM 37.0 °F 33.3 °F 30.0 °F 76% 29.99 in 10.0 mi NW 4.6 mph - N/A   Scattered Clouds
8:53 AM 37.9 °F 34.4 °F 30.0 °F 73% 29.99 in 10.0 mi NNW 4.6 mph - N/A   Partly Cloudy
9:53 AM 41.0 °F 36.4 °F 30.0 °F 65% 29.99 in 10.0 mi NNE 6.9 mph - N/A   Mostly Cloudy
10:53 AM 42.1 °F 37.1 °F 30.9 °F 65% 29.97 in 10.0 mi NNE 8.1 mph - N/A   Clear
11:53 AM 42.1 °F 36.6 °F 32.0 °F 67% 29.96 in 10.0 mi NNE 9.2 mph - N/A   Mostly Cloudy
12:53 PM 42.1 °F 36.1 °F 32.0 °F 67% 29.95 in 10.0 mi NE 10.4 mph - N/A   Mostly Cloudy
1:53 PM 41.0 °F 35.8 °F 32.0 °F 70% 29.95 in 10.0 mi NE 8.1 mph - N/A   Overcast
2:53 PM 41.0 °F 35.2 °F 32.0 °F 70% 29.94 in 10.0 mi NNE 9.2 mph - N/A   Overcast
3:53 PM 39.9 °F 35.1 °F 33.1 °F 77% 29.94 in 10.0 mi NE 6.9 mph - N/A   Overcast
4:10 PM 39.2 °F 35.0 °F 33.8 °F 81% 29.93 in 10.0 mi NE 5.8 mph - N/A   Overcast
4:53 PM 39.0 °F 33.4 °F 33.1 °F 79% 29.94 in 10.0 mi NE 8.1 mph - N/A   Overcast
5:53 PM 39.0 °F 34.8 °F 33.1 °F 79% 29.94 in 10.0 mi NNE 5.8 mph - N/A   Overcast
6:53 PM 39.0 °F 34.8 °F 33.1 °F 79% 29.94 in 10.0 mi NNE 5.8 mph - N/A   Overcast
7:00 PM 39.2 °F 34.2 °F 33.8 °F 81% 29.91 in 10.0 mi NE 6.9 mph - N/A   Overcast
7:53 PM 39.9 °F 34.5 °F 33.1 °F 77% 29.94 in 10.0 mi NNE 8.1 mph - N/A   Overcast
8:00 PM 39.2 °F 34.2 °F 33.8 °F 81% 29.92 in 10.0 mi NNE 6.9 mph - N/A   Overcast
8:21 PM 39.2 °F 34.2 °F 32.0 °F 75% 29.93 in 10.0 mi North 6.9 mph - N/A   Overcast
8:53 PM 39.0 °F 34.0 °F 32.0 °F 76% 29.93 in 10.0 mi NNE 6.9 mph - N/A   Overcast
9:21 PM 39.2 °F 33.0 °F 32.0 °F 75% 29.91 in 10.0 mi NNE 9.2 mph - N/A   Overcast
9:53 PM 39.9 °F 35.8 °F 33.1 °F 77% 29.92 in 10.0 mi NNE 5.8 mph - N/A   Overcast
10:53 PM 39.9 °F 35.1 °F 34.0 °F 79% 29.92 in 10.0 mi North 6.9 mph - N/A   Overcast
11:33 PM 39.2 °F 32.5 °F 33.8 °F 81% 29.91 in 10.0 mi NNW 10.4 mph - N/A   Overcast
11:53 PM 37.9 °F 30.9 °F 30.9 °F 76% 29.93 in 9.0 mi NNW 10.4 mph - 0.00 in Rain Light Rain